This is the latest recevied weather packets stored in our database for station/object TVARMINN. If no packets are shown the sender has not sent any weather packets the latest 10 day(s).
| Time | Temp. | Humidity | Pressure | Rain* | Wind** | Luminosity | Snow |
|---|---|---|---|---|---|---|---|
| 1777770429 | 5.56° C | 92% | 1005.9 hPa | 0 mm | - | - | - |
| 1777769229 | 5.56° C | 90% | 1006.1 hPa | 0 mm | - | - | - |
| 1777768029 | 6.11° C | 90% | 1006.2 hPa | 0 mm | - | - | - |
| 1777766829 | 6.11° C | 90% | 1006.4 hPa | 0 mm | - | - | - |
| 1777765629 | 6.11° C | 89% | 1006.6 hPa | 0 mm | - | - | - |
| 1777764429 | 6.11° C | 89% | 1006.7 hPa | 0 mm | - | - | - |
| 1777763228 | 6.11° C | 88% | 1007 hPa | 0 mm | - | - | - |
| 1777762029 | 6.11° C | 89% | 1007.1 hPa | 0 mm | - | - | - |
| 1777760829 | 6.11° C | 88% | 1007.4 hPa | 0 mm | - | - | - |
| 1777759630 | 6.11° C | 89% | 1007.5 hPa | 0 mm | - | - | - |
| 1777758428 | 6.67° C | 86% | 1007.7 hPa | 0 mm | - | - | - |
| 1777757228 | 6.67° C | 86% | 1007.8 hPa | 0 mm | - | - | - |
| 1777756028 | 6.67° C | 85% | 1008 hPa | 0 mm | - | - | - |
| 1777754829 | 6.67° C | 83% | 1008.2 hPa | 0 mm | - | - | - |
| 1777753628 | 7.78° C | 80% | 1008.4 hPa | 0 mm | - | - | - |
| 1777752429 | 7.22° C | 81% | 1008.4 hPa | 0 mm | - | - | - |
| 1777751228 | 7.22° C | 82% | 1008.6 hPa | 0 mm | - | - | - |
| 1777750028 | 7.22° C | 81% | 1008.9 hPa | 0 mm | - | - | - |
| 1777748828 | 7.22° C | 80% | 1009.1 hPa | 0 mm | - | - | - |
| 1777747627 | 7.78° C | 77% | 1009.2 hPa | 0 mm | - | - | - |
| 1777746428 | 7.78° C | 77% | 1009.4 hPa | 0 mm | - | - | - |
| 1777745227 | 8.33° C | 74% | 1009.5 hPa | 0 mm | - | - | - |
| 1777744027 | 8.33° C | 74% | 1009.7 hPa | 0 mm | - | - | - |
| 1777742828 | 8.33° C | 74% | 1009.8 hPa | 0 mm | - | - | - |
| 1777741627 | 8.33° C | 74% | 1010 hPa | 0 mm | - | - | - |
* Rain latest hour (hover to see other rain measurements)
** Current wind speed in m/s (hover to see current wind gust speed)